2020-080A

Last updated on Tue Dec 08 2020 00:02:03 GMT+0000 (Coordinated Universal Time)

1 46904U 20080A 20342.69116299 .00002416 00000-0 10121-3 0 9998 2 46904 97.4084 99.8225 0013027 182.3517 290.3304 15.24427111 4612
UTC large
Height (km)
Speed (km/s)
/
Latitude / Longitude
Inclination (degrees)
Orbital Period (minutes)
Azimuth
Elevation
Range (km)
Doppler Factor

Next 0 passes for location: London (51.5072 / 0.1276)

Sorry there are no passes over London.